Temperature
11 11 11 11 11 11 11 11 11 11 10 10 10 11 11 11 10 10 11 11 11 11 11 11 11 11 11 11 11 11 11 11 11 11 11 11 11 11
11 11 11 11 11 11 11 11 11 11 10 10 10 10 10 10 10 10 10 10 10 10 10 10 10 10 10 10 10 10 10 10 10 11 11 11 11 11
10 10 10 10 10 10 10 10 10 10 10 10 10 10 10 10 10 10 10 10 10 10 10 10 10 10 10 10 10 10 10 10 10 10 10 10 11 11
10 10 10 10 10 10 10 10 10 10 10 10 10 10 10 10 10 10 10 10 10 9 9 10 10 10 10 10 10 10 10 10 10 10 10 10 10 10
9 9 9 9 9 9 9 9 9 9 9 9 9 9 9 9 9 9 9 9 9 9 9 9 9 10 10 10 10 10 10 10 10 10 10 10 10 10
9 9 9 9 9 9 9 9 9 9 9 9 9 9 9 9 9 9 9 9 9 9 9 9 9 9 9 9 9 9 9 9 9 9 9 9 9 9
8 8 8 8 8 8 8 8 8 8 8 8 8 8 8 8 8 8 9 9 9 8 9 9 9 9 9 9 9 9 9 9 9 9 9 9 9 9
8 8 8 8 8 8 7 7 8 8 8 8 8 8 8 8 8 8 8 8 8 8 8 8 8 8 9 9 8 9 9 9 9 9 9 9 9 9
7 7 7 7 7 7 7 7 7 7 7 7 8 8 8 8 8 7 8 8 8 8 8 8 8 8 8 8 8 8 8 8 8 8 8 8 8 8
7 7 7 7 7 7 7 7 7 7 7 7 7 7 7 7 7 7 7 7 7 7 7 7 8 8 8 8 8 7 8 8 8 8 8 8 8 8
6 6 6 6 6 6 6 6 6 6 6 7 7 7 7 7 7 7 7 7 7 7 7 7 7 7 7 7 7 7 7 7 8 8 8 8 8 8
6 6 6 6 6 6 6 6 6 6 6 6 6 7 6 6 6 6 6 6 6 6 6 6 6 6 6 7 7 7 7 7 7 7 7 7 7 7
5 5 5 5 5 5 5 5 5 5 5 6 6 6 6 6 6 6 6 6 6 6 6 6 6 6 6 6 6 6 6 6 7 7 7 7 7 7
5 5 5 5 5 5 5 5 5 5 5 5 5 5 5 6 6 6 6 5 5 5 5 5 5 5 5 5 5 6 6 6 6 6 6 6 6 6
4 4 4 4 4 4 4 4 4 4 4 4 5 5 5 5 5 5 5 5 5 5 5 5 5 5 5 5 5 5 5 5 5 5 5 6 6 6
4 4 4 4 4 4 4 4 4 4 4 4 4 4 4 4 4 5 5 5 5 5 5 5 5 5 5 5 5 5 5 5 5 5 5 5 5 5
3 3 3 3 3 3 3 3 3 3 3 3 3 4 4 4 4 4 4 4 4 4 4 4 4 4 4 4 4 4 4 4 4 4 4 5 5 5
3 3 3 2 2 2 3 3 2 2 3 3 3 3 3 3 3 4 4 4 4 4 4 4 4 4 4 4 4 4 4 4 4 4 4 4 4 4
2 2 2 2 2 2 2 2 2 2 2 2 2 2 2 3 3 3 3 3 3 3 3 3 3 3 3 3 3 3 3 3 3 3 3 3 4 4
2 1 1 1 1 1 1 1 1 1 1 1 2 2 2 2 2 2 2 3 3 3 3 3 3 3 2 2 2 3 3 3 3 3 3 3 3 3
1 1 1 1 1 1 1 1 1 1 1 1 1 1 1 2 2 2 2 2 2 2 2 2 2 2 2 2 2 2 3 2 2 2 2 3 3 3
0 0 0 0 0 0 0 0 0 0 0 1 1 1 1 1 1 1 1 1 2 2 2 2 2 2 2 2 2 2 2 2 2 2 2 2 2 2
-0 -0 -0 -0 -0 -0 -0 -0 -0 -0 -0 -0 0 0 0 1 1 1 1 1 1 1 1 1 1 1 1 1 1 1 2 2 2 2 2 2 2 2
Wind_Speed
1 1 1 1 1 1 1 1 2 1 2 2 1 1 1 2 2 3 3 3 3 3 3 3 4 3 3 3 4 4 4 4 4 5 5 5 5 5
1 2 1 1 1 1 1 0 1 2 2 2 2 1 0 1 2 2 2 2 2 2 2 2 2 3 3 3 4 4 4 4 4 5 5 6 5 5
1 2 1 1 1 1 1 1 1 1 1 1 1 1 0 1 1 1 1 1 1 1 1 1 2 2 3 3 4 4 4 5 5 5 5 6 5 5
1 1 1 1 1 1 1 1 0 0 2 1 1 1 0 1 0 0 1 0 1 1 1 0 1 2 3 3 4 4 4 4 5 5 6 6 6 5
2 2 1 1 1 1 1 0 0 0 0 2 1 1 1 0 0 0 1 1 1 1 2 2 2 3 3 4 4 3 4 4 5 5 5 6 6 5
2 2 1 2 1 1 0 0 0 1 1 1 1 0 0 1 1 0 0 1 1 1 2 2 3 4 4 4 4 4 4 4 4 4 5 5 5 5
1 1 2 1 1 1 1 1 1 1 1 0 1 1 0 0 1 1 1 1 1 1 1 2 2 2 4 5 4 4 5 5 4 4 5 5 4 4
1 1 1 1 1 0 0 1 1 1 1 1 2 2 3 2 2 1 1 0 2 2 0 2 1 2 4 4 5 5 5 5 4 4 4 4 4 4
2 1 0 1 1 0 1 2 1 1 1 2 3 4 4 4 3 2 2 3 3 2 1 2 1 2 4 5 5 5 5 4 4 4 4 4 4 4
1 2 1 1 1 1 1 1 2 2 2 1 3 5 5 5 5 5 4 2 1 1 1 1 2 2 3 5 5 4 4 4 5 5 4 4 4 4
1 1 2 2 1 1 1 0 2 3 3 3 3 3 3 3 4 3 2 1 1 2 1 1 1 2 2 2 4 4 4 5 5 5 5 5 4 3
0 0 0 0 1 1 2 2 1 3 3 3 3 3 2 1 3 4 4 3 1 1 2 1 1 0 2 2 3 4 4 5 5 5 5 5 4 2
0 1 1 1 1 0 0 1 2 2 1 1 2 2 1 0 1 2 3 4 3 2 3 2 1 1 1 2 2 2 2 3 4 4 5 5 4 2
1 1 1 1 1 1 1 1 2 1 1 1 1 1 1 1 2 2 2 2 3 4 4 3 2 2 2 1 2 2 2 3 2 2 3 4 3 3
1 0 1 1 1 1 2 2 2 1 0 1 1 2 2 2 1 1 1 1 2 2 1 2 1 1 1 2 2 2 2 2 1 1 2 2 1 2
0 0 1 2 2 2 2 2 1 1 1 1 2 2 2 1 1 1 1 0 0 1 2 2 1 1 1 2 2 2 2 1 1 1 1 2 2 1
1 1 1 1 1 2 2 2 2 1 1 2 2 2 2 1 2 1 1 1 1 1 1 2 3 2 0 1 1 2 2 2 2 1 1 1 2 2
3 1 0 0 1 1 1 2 2 2 2 2 2 2 2 2 2 1 1 2 2 1 1 1 1 2 2 2 1 2 1 1 2 1 1 1 2 3
3 1 0 0 1 1 1 1 2 2 2 2 2 2 2 2 2 1 1 1 1 1 1 1 1 1 1 3 3 2 1 2 1 1 2 2 3 3
2 1 1 1 1 1 1 1 2 2 2 2 2 2 2 2 2 1 2 1 1 1 1 1 1 2 2 3 2 3 4 3 2 2 2 2 3 4
1 1 1 1 1 1 1 1 2 2 2 2 2 3 2 2 2 2 2 3 2 1 2 2 3 3 1 0 1 3 3 4 3 3 2 2 2 2
1 1 1 1 2 2 2 2 2 2 2 2 2 3 3 2 2 2 2 2 2 2 2 2 2 1 1 2 3 3 4 4 4 5 4 4 3 3
1 1 1 2 2 2 2 2 2 2 2 2 3 3 3 3 2 2 2 2 2 2 1 2 2 1 1 2 3 3 3 4 3 3 4 6 6 6
Wind_Direction
81 75 66 25 14 41 117 153 164 200 255 271 306 319 33 103 106 119 115 101 83 78 72 58 50 40 24 10 360 355 352 351 352 354 349 345 342 340
79 80 59 37 21 31 63 55 149 190 220 233 236 284 17 108 114 119 137 118 105 91 78 60 48 36 17 8 1 355 350 348 352 353 347 339 338 334
64 88 56 49 42 20 37 45 35 138 191 273 279 306 154 123 53 89 113 124 143 124 94 62 46 32 14 4 356 352 349 345 344 346 342 339 334 328
138 108 78 69 44 25 52 39 1 265 166 203 262 281 272 204 157 127 99 174 194 193 207 356 21 13 351 342 345 345 343 343 346 344 337 334 332 326
171 161 163 108 53 27 54 20 312 19 109 165 223 251 291 209 71 345 10 346 300 240 255 279 314 334 335 334 328 332 342 345 343 338 336 338 334 322
169 169 173 171 194 196 213 257 246 74 54 126 184 221 255 243 137 122 320 309 283 327 309 294 307 322 327 321 320 329 329 331 337 338 340 338 336 330
170 190 196 206 219 210 224 200 143 129 103 113 208 192 238 199 209 216 219 271 278 330 319 303 299 308 309 309 307 320 326 323 324 339 345 343 338 334
180 217 232 223 238 263 276 208 170 174 184 187 214 210 217 221 214 201 189 146 279 284 237 284 298 279 290 291 302 310 314 319 320 325 333 339 344 337
179 179 250 334 21 105 15 7 338 315 203 194 214 222 209 209 186 197 205 198 228 244 178 256 280 276 287 293 303 307 310 314 318 318 322 330 335 337
184 181 182 250 265 122 91 1 329 316 295 253 222 230 221 201 188 192 204 213 276 267 139 226 272 273 302 297 301 316 325 322 323 319 319 323 331 335
210 191 185 209 240 142 133 151 319 312 318 307 268 246 240 204 170 144 133 129 248 265 202 188 256 290 296 294 299 308 317 317 317 320 318 319 327 330
10 290 253 196 241 153 170 190 249 293 315 335 339 323 304 212 175 174 175 170 172 252 243 186 227 332 308 293 303 301 297 307 316 317 318 314 315 312
166 307 289 330 335 334 121 216 256 283 298 311 318 328 354 322 210 206 185 174 180 225 222 182 205 205 218 281 305 302 296 308 309 311 314 319 315 293
198 244 271 19 29 28 339 319 335 12 12 355 345 320 306 287 282 256 241 230 217 226 219 182 194 204 194 243 279 303 307 297 302 319 321 336 336 324
204 161 21 36 35 2 350 2 15 7 6 345 299 277 264 259 286 289 288 312 327 308 259 233 191 210 207 216 238 279 308 312 314 345 351 348 335 332
305 190 64 43 40 15 5 352 343 310 305 270 281 285 293 296 278 254 239 207 69 336 342 339 256 181 233 250 229 255 269 274 305 317 345 344 333 320
105 78 51 28 8 353 353 344 337 337 322 319 304 300 300 294 290 289 223 173 177 224 310 349 6 24 84 245 246 258 261 281 289 295 323 327 324 311
88 90 70 324 270 293 323 335 333 325 309 310 302 281 283 283 292 307 257 192 204 229 249 277 23 23 9 354 315 243 276 285 303 308 265 263 299 311
74 71 49 339 320 332 336 334 326 321 325 327 317 299 286 284 290 296 293 222 216 234 245 224 182 176 271 298 313 329 283 292 301 302 282 259 266 286
54 50 5 328 318 315 311 318 317 326 334 324 313 308 300 291 298 288 282 260 231 260 272 246 221 216 233 251 269 298 310 288 278 277 278 282 286 301
13 8 352 347 341 304 298 307 307 311 319 313 311 309 295 278 275 275 277 276 259 247 255 263 259 271 251 194 279 288 300 313 294 280 265 268 290 296
338 330 332 330 332 324 306 296 301 306 312 311 309 306 297 275 264 262 267 266 251 242 260 279 289 295 258 246 259 273 291 311 326 323 312 272 243 234
303 306 313 318 319 317 314 295 286 290 294 296 298 298 298 294 279 262 260 266 264 247 259 276 297 298 270 243 250 267 278 297 307 317 313 315 296 278
Height
1520 1520 1520 1520 1520 1520 1519 1519 1520 1519 1519 1519 1518 1518 1518 1518 1518 1518 1518 1518 1518 1517 1517 1517 1516 1516 1516 1516 1515 1514 1513 1513 1512 1511 1510 1510 1509 1509
1518 1518 1518 1518 1518 1517 1518 1518 1517 1517 1516 1516 1517 1517 1517 1517 1517 1516 1516 1516 1516 1516 1516 1515 1515 1515 1514 1514 1513 1512 1512 1511 1510 1509 1508 1508 1507 1506
1516 1516 1516 1516 1515 1515 1515 1515 1515 1515 1514 1514 1515 1515 1515 1514 1514 1514 1514 1514 1514 1514 1514 1514 1513 1513 1512 1512 1511 1510 1510 1509 1508 1507 1506 1506 1505 1504
1514 1514 1513 1513 1513 1513 1513 1513 1512 1512 1512 1512 1512 1512 1512 1512 1512 1512 1512 1512 1512 1513 1513 1512 1512 1511 1511 1510 1509 1508 1508 1507 1506 1505 1504 1503 1503 1502
1512 1511 1511 1511 1510 1510 1510 1510 1510 1510 1509 1509 1509 1510 1510 1510 1510 1510 1510 1510 1510 1510 1511 1510 1510 1509 1509 1508 1507 1506 1505 1505 1504 1503 1502 1501 1500 1499
1509 1509 1509 1508 1508 1508 1508 1507 1507 1507 1507 1506 1507 1507 1507 1507 1507 1507 1508 1508 1508 1508 1508 1508 1508 1507 1506 1506 1505 1504 1503 1502 1502 1501 1500 1499 1498 1497
1507 1506 1506 1506 1506 1505 1505 1505 1504 1504 1504 1504 1504 1504 1504 1504 1504 1505 1505 1505 1506 1506 1506 1506 1505 1504 1504 1503 1503 1502 1501 1500 1499 1499 1498 1497 1496 1495
1503 1503 1503 1503 1503 1502 1502 1502 1502 1502 1501 1501 1501 1501 1501 1502 1502 1502 1502 1502 1502 1503 1503 1503 1503 1502 1501 1501 1500 1499 1499 1498 1497 1496 1495 1495 1494 1493
1500 1500 1499 1499 1499 1499 1499 1499 1499 1499 1499 1499 1498 1498 1498 1498 1499 1499 1499 1499 1499 1500 1500 1500 1500 1499 1499 1498 1498 1497 1496 1495 1495 1494 1493 1492 1492 1491
1497 1497 1496 1496 1496 1496 1496 1496 1495 1495 1495 1495 1495 1495 1495 1495 1496 1496 1496 1497 1497 1497 1497 1497 1497 1497 1497 1496 1495 1494 1493 1492 1492 1491 1490 1490 1490 1489
1494 1494 1494 1493 1493 1493 1493 1492 1492 1492 1492 1492 1492 1492 1492 1492 1493 1493 1493 1494 1493 1494 1494 1494 1494 1494 1494 1494 1493 1492 1491 1490 1489 1488 1488 1487 1487 1487
1490 1490 1490 1490 1490 1490 1490 1489 1488 1488 1488 1488 1488 1488 1488 1489 1489 1490 1490 1490 1490 1491 1491 1491 1491 1491 1491 1491 1490 1489 1488 1487 1486 1486 1485 1485 1485 1484
1487 1487 1487 1487 1487 1487 1487 1486 1486 1485 1485 1485 1484 1485 1485 1485 1486 1487 1487 1488 1488 1488 1489 1489 1488 1488 1488 1487 1487 1487 1486 1484 1483 1483 1483 1482 1482 1481
1484 1484 1484 1484 1484 1483 1483 1483 1483 1482 1482 1481 1481 1481 1482 1482 1483 1484 1484 1485 1486 1486 1486 1486 1486 1486 1485 1484 1484 1483 1483 1482 1481 1480 1480 1480 1479 1479
1481 1482 1481 1481 1481 1481 1480 1480 1480 1479 1479 1479 1478 1479 1479 1479 1480 1481 1481 1482 1483 1483 1483 1483 1483 1483 1483 1482 1481 1480 1480 1479 1479 1478 1478 1477 1477 1476
1479 1479 1479 1479 1479 1479 1478 1478 1477 1477 1477 1476 1476 1476 1477 1477 1477 1477 1478 1479 1479 1479 1480 1480 1480 1480 1480 1479 1479 1478 1478 1477 1476 1476 1475 1475 1475 1474
1476 1476 1476 1476 1476 1476 1475 1475 1475 1475 1475 1474 1474 1474 1473 1474 1474 1474 1475 1475 1476 1476 1476 1477 1477 1477 1477 1476 1476 1475 1475 1475 1474 1473 1473 1472 1472 1472
1474 1473 1473 1474 1473 1473 1473 1473 1473 1473 1472 1472 1471 1471 1471 1471 1471 1471 1472 1472 1472 1473 1473 1473 1473 1473 1473 1473 1473 1472 1472 1471 1471 1471 1470 1469 1468 1469
1472 1472 1472 1472 1472 1472 1472 1472 1471 1471 1471 1470 1469 1469 1469 1468 1468 1468 1469 1469 1469 1470 1470 1470 1470 1470 1469 1469 1469 1470 1470 1468 1468 1468 1467 1467 1466 1466
1470 1470 1470 1470 1471 1470 1470 1470 1470 1469 1468 1467 1467 1466 1466 1466 1466 1466 1466 1466 1466 1467 1467 1467 1467 1467 1467 1467 1466 1467 1467 1466 1465 1464 1464 1464 1463 1463
1470 1469 1469 1469 1469 1469 1468 1468 1467 1466 1466 1465 1464 1464 1464 1464 1463 1463 1463 1463 1463 1463 1463 1464 1464 1465 1465 1464 1464 1463 1464 1464 1463 1462 1461 1460 1459 1458
1468 1468 1467 1467 1467 1466 1466 1465 1465 1464 1463 1462 1462 1461 1461 1461 1460 1460 1460 1460 1460 1461 1461 1461 1461 1461 1461 1461 1460 1459 1459 1460 1460 1459 1459 1458 1457 1455
1467 1466 1466 1465 1464 1464 1463 1463 1462 1461 1460 1459 1459 1458 1458 1458 1458 1457 1457 1457 1457 1457 1457 1458 1458 1458 1458 1457 1457 1456 1456 1456 1455 1455 1455 1455 1454 1453